Weather History for Ashland, WI

Change the Weather History Date:

Friday, February 15, 2013

  Actual Average Record
Temperature  
Mean Temperature 11 °F -  
Max Temperature 16 °F 26 °F 48 °F (1981)
Min Temperature 6 °F 5 °F -18 °F (1974)
Degree Days  
Heating Degree Days 54    
Moisture  
Dew Point 2 °F    
Average Humidity 69    
Maximum Humidity 85    
Minimum Humidity 51    
Precipitation  
Precipitation 0.00 in - - ()
Sea Level Pressure  
Sea Level Pressure 30.22 in    
Wind  
Wind Speed 7 mph (WNW)    
Max Wind Speed 14 mph    
Max Gust Speed 17 mph    
Visibility 8 miles    
Events Snow    
Averages and records for this station are not official NWS values.
T = Trace of Precipitation, MM = Missing Value Source: NWS Daily Summary

Daily Weather History Graph

Daily Weather History Graph

Search for Another Location

Airport:

Trip Planner

Search our weather history database for the weather conditions in past years. The results will help you decide how hot, cold, wet, or windy it might be!

Date:

Astronomy

Feb. 15, 2013 Rise Set
Actual Time 7:06 AM CST 5:29 PM CST
Civil Twilight 6:35 AM CST 6:00 PM CST
Nautical Twilight 6:00 AM CST 6:35 PM CST
Astronomical Twilight 5:25 AM CST 7:10 PM CST
Moon 9:19 AM CST (2/15) 11:56 PM CST (2/15)
Length of Visible Light 11h 24m
Length of Day
10h 22m
Waxing Crescent, 30% of the Moon is Illuminated
Feb 15
Waxing Crescent
Feb 17
First Quarter
Feb 25
Full
Mar 4
Last Quarter
Mar 11
New

Hourly Weather History & Observations

Time (CST) Temp. Windchill Dew Point Humidity Pressure Visibility Wind Dir Wind Speed Gust Speed Precip Events Conditions
12:53 AM 8.1 °F 1.4 °F 3.9 °F 83% 30.15 in 10.0 mi WSW 3.5 mph - N/A   Scattered Clouds
1:53 AM 8.1 °F -0.5 °F 3.9 °F 83% 30.15 in 10.0 mi WSW 4.6 mph - N/A   Overcast
2:53 AM 12.0 °F 1.5 °F 7.0 °F 80% 30.15 in 10.0 mi West 6.9 mph - N/A   Overcast
3:53 AM 10.0 °F -0.9 °F 3.9 °F 76% 30.16 in 10.0 mi West 6.9 mph - N/A   Mostly Cloudy
4:53 AM 9.0 °F -2.2 °F 1.9 °F 73% 30.17 in 10.0 mi West 6.9 mph - N/A   Clear
5:53 AM 6.1 °F -4.3 °F 1.0 °F 80% 30.19 in 10.0 mi West 5.8 mph - N/A   Clear
6:53 AM 7.0 °F -4.5 °F 3.0 °F 84% 30.21 in 10.0 mi West 6.9 mph - N/A   Partly Cloudy
7:07 AM 6.8 °F -4.8 °F 3.2 °F 85% 30.15 in 10.0 mi West 6.9 mph - N/A   Mostly Cloudy
7:48 AM 8.6 °F 0.1 °F 5.0 °F 85% 30.17 in 1.8 mi West 4.6 mph - 0.00 in Snow Light Snow
7:53 AM 10.0 °F 1.8 °F 6.1 °F 84% 30.23 in 1.2 mi WNW 4.6 mph - 0.00 in Snow Light Snow
8:02 AM 10.4 °F 0.8 °F 6.8 °F 85% 30.18 in 3.0 mi WNW 5.8 mph - 0.00 in Snow Light Snow
8:53 AM 12.0 °F 1.5 °F 5.0 °F 73% 30.25 in 4.0 mi NW 6.9 mph - 0.00 in Snow Light Snow
9:13 AM 12.2 °F -1.8 °F 5.0 °F 73% 30.19 in 1.8 mi NNW 11.5 mph - 0.00 in Snow Light Snow
9:21 AM 12.2 °F -0.2 °F 3.2 °F 67% 30.20 in 2.5 mi NW 9.2 mph - 0.00 in Snow Light Snow
9:29 AM 12.2 °F -0.2 °F 5.0 °F 73% 30.20 in 4.0 mi NW 9.2 mph - 0.00 in Snow Light Snow
9:53 AM 12.0 °F -3.4 °F 1.9 °F 64% 30.26 in 10.0 mi NNW 13.8 mph - 0.00 in   Mostly Cloudy
10:53 AM 12.9 °F -0.2 °F -0.0 °F 56% 30.27 in 10.0 mi NNW 10.4 mph - N/A   Scattered Clouds
11:53 AM 14.0 °F 0.5 °F -0.0 °F 54% 30.26 in 10.0 mi NNW 11.5 mph - N/A   Partly Cloudy
12:53 PM 16.0 °F 2.3 °F 1.0 °F 52% 30.25 in 10.0 mi NNW 12.7 mph - N/A   Mostly Cloudy
1:53 PM 14.0 °F 1.2 °F -0.9 °F 52% 30.25 in 10.0 mi NW 10.4 mph - N/A   Overcast
2:53 PM 14.0 °F 3.9 °F -0.9 °F 52% 30.25 in 10.0 mi NW 6.9 mph - N/A   Overcast
3:53 PM 15.1 °F 2.5 °F -0.0 °F 51% 30.26 in 10.0 mi WNW 10.4 mph 17.3 mph N/A   Overcast
4:53 PM 14.0 °F 2.0 °F 1.0 °F 56% 30.26 in 10.0 mi NW 9.2 mph 17.3 mph N/A   Overcast
5:53 PM 12.9 °F 3.8 °F 1.9 °F 62% 30.27 in 7.0 mi WNW 5.8 mph - 0.00 in Snow Light Snow
6:21 PM 12.2 °F 1.7 °F 3.2 °F 67% 30.21 in 4.0 mi WNW 6.9 mph - 0.00 in Snow Light Snow
6:53 PM 12.0 °F 0.5 °F 1.9 °F 64% 30.28 in 10.0 mi WNW 8.1 mph - 0.00 in   Overcast
7:53 PM 12.0 °F 1.5 °F -0.0 °F 59% 30.27 in 10.0 mi NW 6.9 mph - N/A   Overcast
8:53 PM 10.9 °F 1.4 °F 1.9 °F 67% 30.27 in 10.0 mi NW 5.8 mph - 0.00 in   Overcast
9:53 PM 10.0 °F -0.9 °F -0.0 °F 64% 30.27 in 10.0 mi NNW 6.9 mph - N/A   Overcast
10:53 PM 10.0 °F -0.9 °F 1.0 °F 67% 30.26 in 9.0 mi North 6.9 mph - 0.00 in   Overcast
11:53 PM 10.0 °F -0.9 °F 1.0 °F 67% 30.25 in 10.0 mi NNW 6.9 mph - 0.00 in   Overcast